Vertical_Velocity
3 1 -1 -6 1 4 1 -1 1 0 1 0 -0 0 -2 -1 -2 -1 -1 -1 0 0 0 -0 -0 -1 -1 -1 -1 -1 -1 -2 -1 -1 1 2 0 -1 -2 -1 0 1 1
1 1 -1 -0 0 0 3 -1 1 1 -0 1 0 1 -1 -0 -1 -1 -1 -0 -0 0 -1 -0 0 -0 -1 -2 -1 -2 -2 -2 -0 0 1 -3 1 1 2 1 -2 -1 -2
4 -10 -5 2 -6 -2 4 1 1 -0 1 1 1 2 1 -0 -1 -0 -0 1 -0 -0 0 1 0 -1 -1 -2 -2 -1 -0 -1 -1 -2 -2 -1 -1 -2 -2 -1 -2 -0 -1
-6 9 -3 3 0 -1 -1 3 1 0 1 0 0 -0 -0 -0 1 1 0 -0 0 1 0 0 0 -1 -2 -1 -1 -1 -2 -2 -1 -1 -1 1 0 -2 -1 -2 -2 -1 -1
10 6 2 5 2 -1 1 3 3 2 1 -1 -0 -0 0 0 0 -1 1 1 1 0 0 0 -0 -1 -2 -2 -1 -1 -1 -1 -1 0 1 0 -1 -1 -1 0 8 6 -1
6 3 3 3 4 4 -0 3 3 1 1 0 0 2 1 -0 -0 1 0 1 -0 0 1 -1 -1 -0 -1 -1 -1 -1 -1 -0 -1 -0 -1 -0 1 3 -1 -5 -3 -7 6
-1 2 5 6 9 3 2 2 1 2 2 1 2 1 0 -1 -0 1 0 -0 1 0 -1 -1 -1 -1 -1 -1 -0 -1 -1 -0 0 0 0 -0 -0 -1 -1 -2 0 -5 -0
4 3 3 4 3 1 0 2 3 3 2 2 1 -0 -1 0 1 0 1 -0 -0 1 1 1 -0 -1 -1 -1 -0 -0 -0 0 -1 -1 -1 -0 1 1 1 -3 -4 -6 -1
2 2 5 3 1 -0 1 2 2 2 1 1 0 0 0 1 1 0 0 0 -1 -2 -2 -2 -2 -1 -1 0 1 1 0 0 0 0 -0 -1 1 -0 -1 -1 -1 -5 -9
3 2 2 1 -0 -0 1 0 1 -1 1 1 1 2 2 2 1 -1 -0 -0 -1 0 1 0 0 1 1 0 0 -1 -1 -1 2 1 1 3 2 1 0 -1 1 2 -5
-0 -1 0 0 1 1 0 0 1 2 2 2 2 2 1 0 1 2 1 1 1 1 1 1 0 0 -0 -1 -2 -2 -0 -1 -0 1 -0 3 1 0 -0 -1 -1 -1 0
1 1 -0 1 1 0 2 2 4 3 1 1 1 1 1 2 2 1 2 2 1 1 1 1 1 1 -0 -1 -2 -2 -2 -2 -1 -1 -2 -0 -2 -1 -0 0 0 -1 5
1 1 0 1 2 3 2 2 2 1 1 1 1 1 1 1 1 0 -0 0 0 0 -0 -1 -1 -1 -1 -1 0 -2 -1 -0 -1 -0 -1 -0 -1 -0 1 4 0 1 1
0 1 2 4 3 2 2 1 -0 1 1 0 0 1 1 0 0 1 1 0 0 0 0 -0 -1 -1 -1 -1 -3 -2 -2 -2 1 0 -0 2 1 -2 0 0 2 1 0
1 3 3 2 -0 -1 -0 0 1 1 1 1 2 1 1 2 2 1 -0 0 -0 1 1 1 2 1 -1 -0 -2 -1 -1 -1 1 1 0 1 3 2 3 -0 -1 2 3
-0 0 -0 -0 2 2 1 2 2 1 2 2 2 3 1 1 0 0 0 0 1 -0 -1 -1 -1 2 -0 -3 -2 -4 -4 -3 -2 -3 -1 0 -2 -1 5 7 10 10 -4
1 2 1 2 2 2 3 3 2 3 3 2 1 1 1 2 1 1 0 -1 -1 -0 -1 -1 -3 -1 -1 -2 -0 -0 -2 -4 -0 -3 -1 -6 -1 5 2 0 1 -4 -1
4 3 3 3 2 2 3 4 2 1 0 1 -0 -0 -1 -1 -2 -2 -3 -1 -1 -1 -2 -0 -4 -0 4 2 -2 -4 -4 -5 -3 -2 -5 -7 -7 -1 4 -2 -4 -4 -0
-0 1 2 1 2 3 0 1 3 3 3 1 2 -0 -3 -2 -1 -1 1 -0 -3 -1 0 -2 -0 -3 2 -3 -3 -4 -4 -2 -4 -3 -4 -4 -9 -6 -2 1 3 2 -3
1 2 2 2 1 1 2 3 2 3 2 1 -2 -2 -0 2 0 -1 -3 -4 -2 -0 -3 -1 -2 -2 -4 0 -1 -3 -6 -8 -10 -4 -8 -1 -1 -0 2 7 5 3 4
2 1 2 4 3 3 2 2 -0 -1 -2 -3 1 2 -1 -4 -6 -3 -2 -4 -2 -1 -1 -0 -4 -2 -3 0 -2 -1 -4 -7 -10 -8 -7 -3 1 -2 -2 3 4 2 4
1 1 3 1 1 1 2 0 -2 1 2 -2 -5 -5 -3 -1 0 -2 0 1 -3 -4 -4 -4 2 3 2 -2 -5 -1 -2 -2 -11 -5 -2 -5 -3 -2 -2 -2 -2 -1 1
1 0 1 3 2 -1 -2 -3 1 0 -2 1 3 -0 -1 -6 -1 -4 -1 -0 -1 -3 -2 -6 -4 -0 -0 1 1 0 -3 -0 -5 -3 -2 -3 -1 -2 -3 2 -0 -1 -1
1 2 2 -1 -0 0 1 1 1 1 2 2 0 1 -0 -0 -2 -3 -7 -6 -2 1 -1 -3 -5 -4 -3 -2 4 0 -1 0 -4 -1 -0 -1 -2 -1 -3 -3 2 1 2
-0 -0 -1 -0 -0 1 2 1 2 3 0 -2 -2 -0 -1 -2 -2 -1 -5 -4 3 -7 -6 -4 -9 -10 -2 2 -1 -4 -6 -7 -5 -4 -4 -3 -2 -1 -1 -0 -0 1 0
1 0 -1 -0 0 -1 -1 1 -1 -4 -4 -1 -2 -2 -2 -1 -2 -3 3 4 -4 -2 -1 -4 -8 2 -4 -3 -1 -2 -3 -3 -1 -1 -2 -0 -2 -3 -3 -3 -2 1 1
Height
3150 3152 3154 3155 3154 3156 3156 3156 3157 3157 3158 3158 3157 3156 3156 3155 3153 3152 3151 3151 3150 3150 3149 3149 3148 3147 3145 3144 3142 3140 3138 3136 3134 3132 3131 3129 3127 3125 3123 3121 3119 3117 3114
3146 3148 3149 3151 3151 3152 3152 3152 3153 3154 3154 3153 3152 3152 3151 3151 3149 3148 3148 3147 3147 3146 3146 3145 3144 3143 3141 3139 3137 3135 3134 3132 3130 3128 3126 3124 3124 3120 3118 3116 3114 3112 3109
3144 3145 3146 3148 3146 3147 3148 3149 3149 3149 3149 3148 3148 3147 3147 3147 3145 3144 3144 3143 3142 3142 3142 3141 3140 3138 3136 3135 3133 3131 3129 3126 3125 3123 3121 3118 3116 3114 3113 3111 3108 3107 3104
3137 3138 3141 3142 3141 3142 3143 3144 3144 3144 3144 3143 3143 3142 3142 3142 3141 3140 3139 3138 3138 3138 3137 3136 3134 3133 3132 3130 3128 3126 3123 3121 3118 3116 3114 3112 3109 3107 3106 3104 3101 3100 3097
3131 3133 3136 3136 3135 3134 3136 3138 3138 3138 3138 3138 3138 3137 3137 3136 3135 3135 3134 3134 3134 3133 3132 3131 3130 3128 3126 3124 3122 3119 3117 3114 3112 3110 3108 3106 3102 3100 3097 3096 3097 3093 3090
3124 3127 3128 3128 3128 3128 3130 3132 3132 3133 3132 3133 3133 3132 3131 3130 3130 3130 3130 3129 3129 3128 3127 3126 3124 3123 3120 3118 3115 3113 3110 3108 3105 3103 3100 3098 3096 3093 3088 3084 3085 3082 3085
3117 3118 3120 3122 3123 3123 3124 3125 3126 3127 3127 3127 3126 3126 3125 3125 3125 3124 3124 3124 3124 3123 3122 3120 3118 3116 3114 3111 3108 3105 3103 3101 3099 3096 3093 3090 3088 3084 3081 3076 3073 3069 3069
3111 3113 3114 3115 3116 3117 3118 3119 3120 3121 3121 3120 3120 3120 3120 3120 3119 3119 3119 3118 3118 3117 3116 3114 3111 3109 3106 3103 3100 3098 3095 3093 3091 3088 3085 3083 3080 3076 3072 3068 3064 3058 3056
3106 3107 3109 3110 3111 3111 3112 3113 3114 3114 3115 3115 3115 3115 3115 3114 3114 3113 3113 3112 3111 3110 3108 3106 3103 3101 3098 3095 3093 3091 3088 3085 3082 3079 3076 3072 3070 3067 3063 3060 3055 3050 3041
3101 3102 3104 3104 3105 3105 3106 3107 3108 3109 3110 3110 3110 3110 3110 3109 3108 3108 3108 3106 3104 3102 3100 3097 3095 3093 3090 3087 3085 3082 3079 3075 3072 3068 3065 3062 3059 3055 3052 3049 3045 3041 3035
3096 3097 3098 3099 3099 3100 3102 3103 3104 3105 3104 3105 3105 3105 3104 3104 3104 3103 3101 3099 3097 3094 3092 3090 3087 3084 3081 3078 3075 3071 3068 3064 3060 3056 3052 3048 3045 3042 3038 3035 3032 3028 3025
3091 3092 3093 3094 3096 3097 3098 3098 3099 3099 3099 3100 3100 3099 3099 3098 3097 3095 3093 3091 3089 3087 3084 3082 3079 3076 3072 3068 3064 3060 3056 3051 3047 3043 3039 3035 3032 3028 3025 3021 3017 3013 3011
3087 3088 3090 3091 3091 3092 3093 3093 3094 3094 3094 3094 3094 3093 3092 3091 3089 3088 3086 3084 3082 3079 3076 3073 3069 3066 3062 3058 3054 3049 3044 3040 3035 3031 3026 3022 3018 3014 3010 3007 3001 2998 2995
3084 3086 3086 3087 3087 3088 3088 3088 3089 3089 3088 3088 3087 3087 3086 3084 3082 3080 3079 3077 3074 3071 3067 3063 3059 3054 3049 3045 3041 3037 3031 3027 3022 3018 3013 3008 3003 2998 2993 2989 2986 2982 2979
3081 3082 3082 3082 3082 3082 3082 3083 3083 3083 3083 3082 3081 3080 3079 3077 3075 3073 3071 3068 3064 3060 3056 3052 3048 3043 3038 3034 3029 3023 3018 3012 3007 3003 2999 2994 2989 2984 2979 2973 2969 2966 2962
3076 3076 3076 3076 3076 3077 3077 3077 3077 3077 3077 3076 3075 3073 3072 3070 3068 3065 3062 3058 3055 3050 3046 3042 3037 3032 3026 3020 3014 3007 3000 2995 2989 2984 2979 2975 2971 2967 2963 2958 2955 2952 2948
3069 3070 3069 3070 3070 3070 3070 3071 3071 3071 3070 3070 3068 3067 3065 3062 3059 3056 3052 3049 3045 3040 3035 3030 3024 3019 3013 3007 3001 2994 2987 2982 2976 2970 2963 2957 2954 2950 2945 2941 2939 2937 2937
3063 3063 3063 3064 3065 3066 3066 3066 3066 3065 3064 3063 3061 3059 3056 3053 3050 3047 3043 3039 3034 3029 3024 3018 3013 3007 3002 2996 2990 2982 2975 2969 2963 2957 2950 2945 2940 2937 2933 2927 2925 2924 2924
3057 3058 3059 3060 3061 3061 3061 3061 3060 3059 3057 3055 3053 3050 3048 3045 3041 3037 3033 3028 3023 3019 3013 3008 3002 2997 2993 2985 2978 2970 2964 2959 2952 2945 2940 2934 2930 2928 2924 2920 2916 2913 2912
3054 3055 3057 3058 3057 3056 3055 3054 3053 3052 3050 3048 3045 3042 3039 3034 3031 3027 3023 3018 3013 3008 3003 2998 2992 2987 2982 2975 2968 2961 2953 2947 2941 2937 2933 2930 2924 2921 2917 2913 2909 2906 2903
3051 3052 3052 3051 3051 3050 3048 3047 3046 3045 3043 3040 3037 3034 3030 3026 3022 3018 3013 3007 3003 2998 2993 2988 2982 2978 2972 2967 2960 2952 2945 2939 2934 2930 2926 2924 2920 2915 2912 2908 2903 2900 2896
3045 3045 3045 3045 3044 3043 3042 3040 3039 3037 3034 3032 3029 3026 3022 3019 3013 3009 3004 2998 2991 2987 2983 2979 2975 2969 2963 2957 2951 2945 2939 2933 2928 2924 2920 2916 2912 2908 2904 2900 2897 2893 2889
3040 3039 3038 3038 3037 3036 3035 3033 3032 3030 3027 3024 3021 3016 3013 3009 3005 2999 2995 2989 2983 2978 2973 2969 2965 2960 2955 2950 2943 2938 2933 2927 2922 2919 2914 2909 2905 2901 2897 2893 2888 2884 2880
3033 3033 3032 3031 3030 3029 3028 3026 3024 3022 3019 3016 3013 3008 3004 2999 2995 2990 2985 2981 2975 2969 2964 2959 2955 2950 2945 2941 2936 2930 2925 2919 2915 2911 2906 2902 2897 2892 2888 2883 2879 2874 2871
3024 3024 3025 3025 3024 3022 3020 3018 3016 3014 3011 3008 3004 3000 2995 2991 2987 2981 2974 2970 2966 2960 2955 2950 2945 2939 2936 2932 2927 2921 2916 2911 2907 2903 2898 2893 2888 2882 2877 2872 2868 2864 2861
3018 3017 3017 3017 3016 3015 3013 3011 3008 3006 3003 2999 2995 2991 2987 2982 2977 2971 2966 2962 2956 2951 2947 2942 2936 2932 2927 2923 2918 2913 2909 2904 2900 2895 2890 2884 2879 2873 2868 2863 2859 2856 2852